CW8812 Weather Reports


time (UTC)temp
C
wind
direction
speed
KPH
gust
KPH
rain 1hr
cm
rain 24hr
cm
rain mn
cm
humidity
%
barometer
mb
20260504175516 20 225 1.6 9.7 0.00 0.00 0.00 54 1008.8
20260504174516 19 225 1.6 9.7 0.00 0.00 0.00 57 1008.8
20260504173516 20 225 1.6 8.0 0.00 0.00 0.00 53 1009.0
20260504172517 20 225 3.2 9.7 0.00 0.00 0.00 54 1009.1
20260504171516 19 203 3.2 9.7 0.00 0.00 0.00 54 1009.1
20260504170517 20 225 1.6 8.0 0.00 0.00 0.00 54 1009.4
20260504150516 18 203 4.8 11.3 0.00 0.00 0.00 45 1010.4
20260504140516 18 270 6.4 17.7 0.00 0.00 0.00 40 1010.6
20260504130515 16 225 3.2 9.7 0.00 0.00 0.00 52 1011.1
20260504110537 10 0.0 0.0 0.00 0.00 0.00 74 1011.9
20260504100537 7 0.0 0.0 0.00 0.00 0.00 74 1012.1
20260504081517 9 0.0 0.0 0.00 0.00 0.00 70 1011.7
20260504080518 9 0.0 0.0 0.00 0.00 0.00 71 1011.7
20260504050518 10 0.0 0.0 0.00 0.00 0.00 67 1011.2
20260504045517 10 0.0 0.0 0.00 0.00 0.00 66 1011.1
20260504044518 10 0.0 0.0 0.00 0.00 0.00 65 1011.1
20260504043516 10 0.0 0.0 0.00 0.00 0.00 64 1011.0
20260504042517 10 0.0 0.0 0.00 0.00 0.00 63 1011.0
20260504041538 10 0.0 0.0 0.00 0.00 0.00 64 1011.0
20260504040516 10 0.0 0.0 0.00 0.00 0.00 64 1010.8
20260504035517 10 0.0 0.0 0.00 0.00 0.00 66 1010.7
20260504034515 10 0.0 0.0 0.00 0.00 0.00 65 1010.7
20260504033515 9 0.0 0.0 0.00 0.00 0.00 63 1010.7
20260504032516 9 0.0 0.0 0.00 0.00 0.00 61 1010.6
20260504031515 10 0.0 0.0 0.00 0.00 0.00 60 1010.6
20260504030519 10 0.0 0.0 0.00 0.00 0.00 58 1010.6
20260504025515 10 0.0 0.0 0.00 0.00 0.00 56 1010.6
20260504024518 10 0.0 0.0 0.00 0.00 0.00 54 1010.6
20260504023518 10 0.0 0.0 0.00 0.00 0.00 52 1010.6
20260504022517 10 0.0 0.0 0.00 0.00 0.00 50 1010.5
20260504021538 10 0.0 0.0 0.00 0.00 0.00 48 1010.5
20260504020517 10 0.0 0.0 0.00 0.00 0.00 49 1010.5
20260504015517 10 0.0 0.0 0.00 0.00 0.00 48 1010.5
20260504014538 10 0.0 0.0 0.00 0.00 0.00 48 1010.5
20260504013517 10 0.0 0.0 0.00 0.00 0.00 48 1010.3
20260504012517 11 0.0 0.0 0.00 0.00 0.00 48 1010.2
20260504011517 11 0.0 0.0 0.00 0.00 0.00 47 1010.2
20260504010517 11 0.0 0.0 0.00 0.00 0.00 44 1010.1
20260504005539 11 0.0 0.0 0.00 0.00 0.00 43 1009.6
20260504004537 12 0.0 0.0 0.00 0.00 0.00 41 1009.6
20260504003517 12 0.0 0.0 0.00 0.00 0.00 40 1009.5
20260504002557 12 0.0 0.0 0.00 0.00 0.00 38 1009.5
20260504001517 13 0.0 0.0 0.00 0.00 0.00 37 1009.5
20260504000517 13 0.0 0.0 0.00 0.00 0.00 34 1009.3
20260503235517 13 0.0 0.0 0.00 0.00 0.00 32 1009.2
20260503234517 14 0.0 4.8 0.00 0.00 0.00 29 1009.2
20260503233517 14 0.0 1.6 0.00 0.00 0.00 29 1009.0
20260503232517 15 270 1.6 8.0 0.00 0.00 0.00 28 1009.0
20260503231517 15 270 3.2 9.7 0.00 0.00 0.00 28 1009.0
20260503230517 15 270 3.2 12.9 0.00 0.00 0.00 27 1008.9
20260503225518 15 293 6.4 17.7 0.00 0.00 0.00 27 1008.9
20260503224517 15 315 4.8 12.9 0.00 0.00 0.00 27 1008.9
20260503223517 15 315 4.8 17.7 0.00 0.00 0.00 27 1008.8
20260503222517 15 315 6.4 17.7 0.00 0.00 0.00 27 1008.8
20260503221517 15 315 9.7 30.6 0.00 0.00 0.00 26 1008.8
20260503220517 15 0 6.4 16.1 0.00 0.00 0.00 26 1008.7
20260503215517 15 315 4.8 19.3 0.00 0.00 0.00 26 1008.6
20260503214537 15 338 8.0 20.9 0.00 0.00 0.00 27 1008.6
20260503213516 15 293 9.7 22.5 0.00 0.00 0.00 26 1008.4
20260503212537 15 315 8.0 19.3 0.00 0.00 0.00 27 1008.2
20260503211537 15 338 9.7 30.6 0.00 0.00 0.00 26 1008.2
20260503210517 16 315 6.4 17.7 0.00 0.00 0.00 27 1008.4
20260503205517 16 338 8.0 22.5 0.00 0.00 0.00 26 1008.5
20260503204517 15 338 8.0 17.7 0.00 0.00 0.00 25 1008.5
20260503203518 15 338 6.4 20.9 0.00 0.00 0.00 26 1008.4
20260503202516 15 315 11.3 25.7 0.00 0.00 0.00 27 1008.5
20260503201518 15 315 9.7 32.2 0.00 0.00 0.00 26 1008.5
20260503200516 15 315 9.7 22.5 0.00 0.00 0.00 27 1008.5
20260503195518 15 338 8.0 22.5 0.00 0.00 0.00 26 1008.5
20260503194516 15 338 12.9 29.0 0.00 0.00 0.00 27 1008.5
20260503193516 15 338 6.4 20.9 0.00 0.00 0.00 28 1008.5
20260503192516 15 0 9.7 29.0 0.00 0.00 0.00 28 1008.5
20260503191516 15 0 4.8 17.7 0.00 0.00 0.00 27 1008.5
20260503190516 15 338 6.4 16.1 0.00 0.00 0.00 28 1009.0
20260503185516 15 293 9.7 20.9 0.00 0.00 0.00 27 1009.0
20260503184516 15 270 8.0 22.5 0.00 0.00 0.00 28 1009.0
20260503183517 14 315 11.3 20.9 0.00 0.00 0.00 29 1009.1
20260503182517 15 338 9.7 20.9 0.00 0.00 0.00 29 1009.0
20260503181516 14 0 6.4 12.9 0.00 0.00 0.00 31 1009.0
20260503180517 13 315 11.3 29.0 0.00 0.00 0.00 30 1009.0